Wind_Speed
36 37 38 36 33 32 32 32 33 34 37 39 42 47 45 39 35 32 30 37 41 40 45 53 61 66 67 56 41 36 30 41 39 43 39 36 37 34 30 28 24 22 19 17 15 13 13 13 14 13 13 12 13 11
37 38 35 33 31 30 31 32 32 33 35 38 41 45 46 42 38 35 35 37 40 41 45 55 61 72 75 71 48 41 31 33 36 42 39 36 38 35 27 22 20 20 20 17 14 14 12 11 12 12 12 12 11 11
36 35 33 30 30 31 32 33 33 35 36 38 41 43 44 44 42 39 35 38 40 37 39 55 60 63 70 74 69 40 44 35 35 39 36 36 33 27 25 22 24 23 22 16 13 14 12 10 11 12 11 12 12 12
34 32 30 31 31 31 32 34 36 40 39 39 39 40 42 42 42 40 39 41 40 35 32 51 57 57 58 51 64 49 35 34 30 32 39 39 34 28 30 31 30 27 22 18 15 16 5 5 8 9 11 10 11 13
29 29 31 32 32 32 34 36 39 42 41 37 36 36 37 39 41 41 39 42 42 37 33 50 65 66 66 59 58 61 47 39 35 32 39 40 35 33 36 38 33 26 23 19 20 9 7 6 10 13 15 16 13 12
29 30 30 32 35 37 37 37 40 40 40 35 33 33 34 37 40 43 43 47 46 40 36 37 53 62 60 58 59 57 50 44 39 37 34 35 35 37 43 42 31 27 23 22 20 9 6 11 14 13 16 17 14 12
31 32 33 35 37 40 39 38 38 41 41 37 34 32 33 33 39 42 47 46 46 44 41 39 38 48 53 58 54 53 56 51 35 38 35 35 40 45 48 35 27 26 26 23 16 11 10 8 12 14 15 14 13 11
39 41 42 42 44 44 44 42 41 40 43 41 37 34 33 34 38 42 43 46 46 46 45 42 40 39 45 53 55 55 56 51 41 42 36 37 45 48 45 31 30 27 27 21 17 11 9 7 11 14 15 14 14 15
31 34 42 49 52 52 51 50 48 47 47 46 44 41 39 39 42 43 44 49 50 47 46 42 38 38 38 41 46 49 49 54 45 45 37 41 47 52 34 30 32 31 28 23 16 11 11 8 10 15 18 17 15 17
30 31 33 34 38 48 57 58 55 53 54 52 52 51 48 46 44 42 44 52 55 51 48 44 38 40 40 39 38 40 41 56 45 45 43 47 49 42 30 34 34 32 29 22 17 15 12 11 12 16 19 18 17 15
29 29 33 36 38 40 45 53 58 59 55 53 60 57 54 50 45 44 50 56 58 54 48 46 42 39 42 41 41 48 50 53 52 48 49 47 47 33 32 34 34 34 29 22 18 16 14 12 14 17 19 19 17 16
29 32 36 37 41 44 48 51 53 59 62 67 64 62 60 55 53 53 57 57 57 54 48 44 43 39 43 46 44 46 49 58 57 54 51 46 35 33 36 34 35 35 30 22 19 18 14 13 14 18 19 17 15 15
27 29 36 46 45 48 50 53 57 59 60 68 62 65 67 66 64 62 58 55 55 50 46 44 41 39 45 45 45 42 50 58 58 54 51 32 30 35 36 37 37 33 26 21 21 19 15 13 14 18 17 17 17 18
20 27 35 39 49 53 56 58 60 62 65 65 69 68 74 72 62 52 48 49 46 47 47 46 44 40 39 42 48 43 54 63 58 56 44 34 30 35 39 39 35 28 25 23 22 19 15 13 14 15 15 15 16 16
13 20 27 41 46 55 62 63 63 58 64 63 65 72 76 63 52 48 48 49 51 52 53 50 46 45 40 39 52 52 58 64 58 46 34 26 37 40 39 34 30 28 26 26 23 20 16 13 12 14 14 14 14 11
20 25 29 43 56 61 48 59 58 57 60 64 60 70 68 63 57 50 47 48 50 53 54 57 54 51 45 47 54 59 66 69 59 44 25 32 41 41 36 31 29 27 27 26 22 19 15 14 12 13 13 12 10 10
30 28 29 42 50 54 56 62 62 63 60 55 49 63 65 61 57 48 46 52 52 61 61 53 59 53 48 56 58 70 68 58 50 35 28 36 41 40 35 31 27 28 26 24 21 18 16 14 12 11 11 9 9 10
40 42 40 50 52 58 66 60 56 50 44 30 36 57 60 49 45 40 36 46 60 62 60 57 54 52 53 60 61 53 50 46 42 31 34 39 42 38 36 34 31 28 26 24 21 18 16 14 12 12 10 9 11 13
37 40 48 49 50 51 55 57 47 40 43 31 34 45 52 49 45 42 36 15 31 42 60 67 65 53 49 48 48 41 38 34 37 37 39 41 38 36 34 31 29 27 26 23 20 18 18 16 13 11 11 12 14 15
37 41 40 44 48 50 51 53 55 25 23 30 40 46 50 52 46 44 29 30 34 44 55 60 54 52 47 47 35 24 26 35 36 40 42 42 39 37 34 32 29 27 26 24 22 20 19 17 14 13 14 14 16 17
50 47 48 47 47 44 58 47 31 16 28 31 43 48 51 43 45 44 44 45 45 47 48 46 46 47 43 36 30 25 35 36 38 32 38 37 37 36 34 32 31 28 28 26 23 21 20 19 17 17 18 17 18 20
56 55 47 46 49 47 37 26 29 28 49 50 57 43 29 35 43 38 32 41 40 38 38 40 40 40 30 26 28 30 37 38 39 42 46 44 38 35 33 32 29 27 27 25 24 23 23 21 20 19 19 20 20 22
41 49 41 27 26 27 20 27 41 45 44 54 48 44 36 35 36 29 31 31 33 33 31 30 29 29 26 33 31 33 38 43 45 46 45 41 38 37 34 31 27 27 26 25 26 26 25 24 23 22 21 21 22 25
59 55 41 34 34 32 25 30 34 52 52 34 34 43 41 39 26 28 32 40 33 32 28 27 29 26 33 36 35 39 45 46 42 40 41 40 39 36 33 31 28 26 26 28 28 28 27 27 26 26 25 24 25 28
51 42 32 31 37 36 28 30 43 34 26 30 44 31 29 31 36 36 29 33 30 30 33 35 33 31 37 38 39 45 47 39 36 38 40 38 36 32 30 29 27 28 30 31 30 29 29 30 30 28 27 29 30 32
47 38 29 35 45 45 41 37 43 44 28 25 45 39 42 37 31 26 35 36 33 33 33 37 34 35 38 43 41 43 43 40 37 36 37 37 36 36 33 31 29 29 31 31 32 32 31 30 30 31 32 34 34 36
30 18 19 34 47 47 42 43 41 36 28 35 45 45 40 36 34 30 33 33 32 31 30 33 35 35 30 36 40 39 37 36 35 34 34 34 35 35 34 33 33 34 36 37 35 31 30 32 33 36 38 39 40 40
32 33 33 34 42 40 37 46 44 42 39 37 35 38 34 30 32 30 30 30 33 31 29 27 25 28 32 34 35 35 35 34 33 33 32 32 32 32 33 34 36 37 36 33 33 33 34 36 38 40 41 42 42 42
28 20 28 33 36 36 30 30 33 31 27 30 29 26 31 30 26 22 22 25 35 32 28 26 23 23 24 24 25 27 28 29 29 31 32 33 33 33 33 35 36 37 37 38 39 39 39 41 44 45 45 45 45 46
24 20 27 30 32 33 31 33 33 30 31 35 33 33 36 31 20 21 22 21 23 25 26 26 25 25 25 24 25 26 26 27 29 29 29 29 30 31 32 35 37 38 40 42 44 45 46 47 48 48 48 48 48 49
21 16 23 33 29 32 35 35 37 37 40 39 36 32 35 34 21 19 24 25 25 26 26 27 28 29 29 27 28 30 29 28 28 28 30 32 35 37 38 39 41 41 42 43 45 47 48 49 50 50 50 50 50 50
29 17 13 14 26 35 33 33 34 36 43 39 40 34 27 29 29 26 29 31 32 32 29 27 30 31 27 26 28 30 30 30 31 32 33 35 36 38 39 41 42 44 46 47 48 49 50 50 49 49 50 50 50 50
40 39 26 18 21 33 39 37 37 36 34 37 39 39 37 37 36 34 36 35 33 33 34 33 32 31 32 32 32 33 35 38 39 41 41 42 42 43 44 45 47 49 50 51 52 51 52 52 52 52 52 53 52 52
Wind_Direction
262 264 266 259 250 244 236 227 221 218 216 214 210 205 205 208 205 197 199 203 199 197 201 201 199 198 205 192 186 193 206 205 199 196 200 203 203 206 211 217 219 220 221 229 231 236 244 258 268 277 284 290 283 285
265 264 259 251 241 229 218 215 211 212 212 211 207 203 206 209 208 202 203 204 199 198 201 201 200 202 201 203 212 214 213 201 205 203 207 211 210 209 208 214 217 219 221 227 228 236 247 260 272 280 280 287 289 279
261 258 252 236 223 214 211 208 208 208 206 206 205 205 207 208 209 209 205 208 199 197 204 200 200 203 210 218 222 215 202 205 208 208 207 213 217 213 204 207 216 218 220 220 223 240 257 273 286 285 291 297 290 270
259 249 233 219 211 207 207 205 204 202 199 199 202 206 209 211 212 210 202 205 196 193 198 191 192 193 192 198 218 199 193 190 194 206 206 205 211 210 205 206 213 216 215 216 218 238 257 274 294 297 288 289 286 272
244 230 218 209 204 207 206 202 201 201 194 195 199 202 205 206 206 203 194 201 191 192 188 190 189 186 190 197 213 211 212 215 210 208 205 200 206 210 208 210 211 212 212 211 224 214 235 268 281 293 290 274 269 262
225 219 214 209 206 207 203 199 199 201 191 192 196 198 200 203 202 199 193 199 189 189 188 188 196 199 200 199 205 212 219 215 209 209 193 203 207 210 212 213 205 211 209 215 221 219 239 251 275 291 310 295 271 257
232 227 219 214 209 206 205 202 199 199 197 194 196 198 200 201 203 199 197 195 191 187 187 188 185 194 197 199 201 209 218 213 214 210 196 197 202 209 215 209 207 211 213 218 216 226 243 264 290 283 292 303 281 265
240 235 228 222 216 212 210 208 207 204 201 200 199 199 200 198 204 198 192 193 194 192 189 189 188 188 194 199 201 208 216 217 216 211 203 204 210 211 210 194 209 212 214 216 216 219 232 258 271 280 284 286 274 261
230 233 232 227 221 217 212 210 208 207 206 204 203 200 200 200 202 195 193 193 196 196 193 191 191 192 191 194 201 206 216 216 217 210 204 205 208 216 198 196 208 211 214 210 205 216 230 260 287 295 291 285 280 273
232 229 224 218 214 216 216 212 209 206 204 206 205 201 201 201 199 196 198 197 200 197 194 190 190 187 188 187 190 201 219 223 219 214 208 208 212 211 191 198 205 209 212 204 210 226 235 260 282 296 300 295 285 287
228 221 218 215 211 204 201 202 203 203 199 200 205 202 202 202 199 201 202 200 202 200 196 193 192 193 189 191 194 199 210 218 219 213 208 210 209 198 193 200 204 210 213 210 217 237 242 265 285 297 305 307 301 288
220 221 218 210 211 210 204 197 194 196 195 201 204 204 202 200 200 204 202 200 201 200 196 199 198 196 199 199 204 205 209 216 216 208 212 212 195 189 192 199 207 211 210 206 219 233 248 268 288 298 306 306 303 299
221 218 216 214 213 208 197 196 196 196 195 196 193 198 200 201 202 204 200 197 199 194 197 202 205 206 199 200 203 205 209 212 215 212 211 194 177 187 194 202 209 211 204 209 220 232 242 268 286 296 303 305 302 300
229 224 207 211 204 201 199 195 192 194 196 197 194 194 200 205 205 200 197 199 199 192 201 207 210 211 207 204 204 204 209 209 212 212 213 203 183 191 203 206 209 207 202 206 218 230 242 263 282 289 297 305 307 305
226 212 200 193 192 196 195 190 189 192 193 198 198 198 202 203 201 200 200 199 201 203 202 205 207 210 215 210 203 204 203 206 212 211 209 199 187 198 205 203 204 207 205 211 221 223 238 256 274 286 292 294 301 313
138 144 145 156 160 168 178 179 178 185 191 198 205 203 199 200 201 200 199 200 202 203 201 205 207 209 214 203 202 204 198 204 210 213 204 191 192 201 203 198 202 205 207 212 215 218 237 249 268 283 288 284 293 306
139 133 138 150 161 165 160 167 176 183 190 196 199 197 196 199 200 201 206 206 209 210 206 205 208 214 217 204 199 196 199 206 211 205 209 193 195 202 205 204 201 203 208 213 210 222 235 248 258 275 277 284 301 300
140 135 137 145 151 159 161 166 174 182 186 190 194 192 195 194 196 204 202 214 217 212 208 206 214 206 197 196 196 203 208 210 214 206 191 191 199 204 209 210 203 205 211 210 213 226 237 249 257 268 271 274 285 290
141 140 141 147 149 151 160 172 174 172 161 149 167 186 191 190 180 179 188 177 175 186 201 209 203 188 190 189 194 201 212 207 203 190 187 196 199 204 205 202 204 208 210 211 221 230 241 247 252 263 272 276 283 289
145 147 150 156 158 164 165 170 158 141 128 154 176 186 182 176 178 186 183 174 170 172 183 187 184 188 191 193 199 212 205 194 186 183 189 195 198 202 201 204 207 210 211 217 225 234 242 246 248 258 268 275 283 291
147 148 147 145 152 153 157 163 174 125 139 156 162 163 168 176 186 190 180 166 174 181 180 181 184 184 194 212 215 211 193 188 181 178 188 194 197 200 203 208 213 214 217 223 229 236 244 250 253 261 271 280 286 297
137 133 126 120 131 142 147 137 158 150 156 162 167 166 170 184 190 185 165 172 167 164 171 182 192 199 199 199 194 191 190 181 176 181 187 191 196 202 208 211 215 217 223 228 232 238 246 252 255 261 270 278 288 298
152 156 144 126 126 140 140 141 160 158 165 168 178 181 188 188 173 163 162 156 156 165 172 176 186 204 200 185 184 185 188 190 192 189 189 193 199 205 210 212 215 219 224 231 236 242 251 256 260 263 267 276 289 298
142 142 140 129 134 135 137 159 171 179 172 175 172 167 174 166 174 162 159 148 147 151 152 163 186 197 183 180 179 186 185 189 192 193 197 198 203 208 212 216 221 225 231 235 237 243 254 259 260 263 266 275 286 292
154 146 139 134 137 146 140 159 173 162 163 160 164 167 165 167 176 165 162 159 154 162 157 161 175 182 173 177 181 185 187 191 193 197 201 205 209 213 217 219 222 228 233 236 239 245 254 260 264 266 269 277 284 288
147 146 143 144 148 156 159 162 179 184 182 171 171 170 167 158 158 156 152 149 155 161 166 165 163 175 186 179 185 191 195 200 202 204 206 209 213 219 224 226 228 232 235 241 244 249 254 262 266 268 274 278 281 285
143 131 145 156 159 157 156 164 176 175 158 149 149 153 157 165 165 164 162 157 160 160 164 168 171 173 173 184 192 196 199 202 206 209 213 217 221 225 229 232 234 236 238 242 245 251 257 261 265 271 274 277 281 286
132 136 134 158 175 172 174 170 169 176 172 165 162 163 157 166 159 160 161 172 172 173 174 176 181 186 191 192 194 198 203 209 214 217 221 223 226 230 233 237 240 242 245 248 251 254 259 265 268 270 273 279 284 288
142 144 152 153 171 180 179 183 192 188 174 173 170 179 183 167 159 164 164 171 178 186 185 184 187 190 194 199 206 211 217 220 223 226 229 231 233 236 239 244 247 248 248 250 251 254 260 267 271 274 278 282 285 287
160 152 172 164 171 180 183 201 205 202 194 190 191 190 197 178 172 178 180 190 188 186 190 194 201 209 210 210 211 214 218 221 224 228 233 239 244 248 250 250 252 254 257 259 259 260 265 269 273 277 280 283 285 287
176 152 165 175 174 179 188 193 197 198 193 197 203 203 198 191 197 195 192 193 197 204 210 215 216 218 220 220 218 219 223 228 232 236 241 245 249 252 254 255 257 258 260 261 263 266 270 273 276 279 282 285 287 290
196 205 191 174 190 187 184 187 189 195 201 206 212 219 217 206 212 219 212 208 210 215 217 221 226 227 227 228 229 231 233 237 240 245 250 255 258 258 260 261 263 264 265 267 269 271 274 277 280 282 284 285 287 289
217 226 228 212 206 195 197 196 191 199 201 201 204 209 218 222 225 228 227 225 223 217 217 222 225 228 232 234 237 239 242 245 248 251 253 255 257 258 259 261 262 265 267 270 273 275 277 279 282 284 286 288 288 288
Height
5420 5423 5425 5426 5429 5433 5437 5443 5448 5454 5460 5467 5475 5485 5495 5504 5515 5524 5533 5538 5548 5559 5565 5576 5588 5602 5613 5623 5632 5644 5650 5659 5669 5677 5685 5692 5701 5706 5713 5720 5725 5730 5734 5737 5740 5741 5744 5743 5744 5744 5744 5744 5744 5745
5409 5411 5413 5416 5420 5424 5430 5436 5442 5448 5454 5461 5470 5480 5490 5499 5508 5519 5525 5533 5543 5553 5564 5570 5581 5594 5606 5616 5627 5636 5649 5658 5666 5673 5681 5689 5695 5702 5711 5717 5722 5727 5730 5734 5736 5738 5739 5740 5739 5739 5739 5740 5741 5742
5397 5399 5403 5406 5412 5418 5424 5430 5436 5443 5449 5457 5466 5475 5484 5493 5502 5512 5522 5528 5537 5547 5555 5565 5578 5589 5602 5611 5622 5635 5644 5652 5660 5668 5677 5684 5693 5701 5707 5714 5716 5721 5725 5730 5732 5733 5734 5735 5735 5735 5736 5737 5738 5739
5385 5389 5393 5399 5405 5412 5418 5424 5431 5438 5445 5453 5461 5469 5478 5487 5496 5506 5515 5524 5534 5544 5549 5559 5568 5582 5595 5607 5618 5632 5640 5647 5654 5662 5670 5679 5688 5696 5702 5705 5709 5716 5722 5726 5728 5728 5732 5732 5732 5732 5733 5733 5734 5735
5375 5380 5386 5392 5399 5406 5412 5419 5426 5433 5440 5448 5457 5465 5474 5482 5491 5501 5513 5520 5531 5541 5548 5555 5565 5577 5587 5600 5613 5624 5635 5642 5650 5657 5664 5674 5683 5691 5694 5696 5704 5712 5717 5723 5724 5727 5728 5728 5729 5729 5729 5729 5729 5730
5367 5373 5379 5386 5393 5400 5407 5414 5421 5429 5437 5445 5453 5461 5470 5478 5485 5494 5504 5511 5524 5534 5545 5550 5561 5573 5584 5596 5607 5617 5628 5639 5645 5652 5660 5668 5676 5684 5686 5690 5702 5707 5714 5717 5721 5724 5725 5725 5725 5726 5726 5725 5725 5726
5359 5366 5372 5379 5387 5394 5401 5409 5416 5425 5433 5442 5450 5457 5465 5473 5480 5491 5500 5512 5520 5529 5539 5547 5556 5567 5578 5590 5601 5613 5624 5634 5641 5649 5656 5663 5669 5673 5678 5694 5700 5705 5710 5714 5718 5721 5722 5722 5724 5724 5723 5722 5722 5722
5347 5354 5361 5370 5378 5387 5395 5404 5411 5420 5428 5437 5446 5454 5461 5469 5475 5486 5498 5508 5516 5525 5535 5543 5556 5566 5574 5585 5597 5608 5619 5627 5635 5644 5652 5658 5663 5666 5674 5692 5695 5701 5705 5710 5714 5717 5719 5720 5720 5719 5718 5718 5718 5717
5334 5338 5345 5353 5364 5375 5385 5396 5406 5415 5422 5431 5440 5448 5454 5461 5471 5483 5493 5502 5510 5522 5532 5544 5554 5565 5573 5582 5593 5603 5611 5619 5630 5638 5645 5651 5656 5655 5681 5688 5690 5696 5701 5706 5710 5714 5715 5717 5716 5715 5714 5714 5713 5713
5324 5329 5335 5340 5348 5359 5371 5383 5395 5406 5416 5424 5431 5440 5450 5457 5468 5479 5486 5495 5504 5516 5529 5542 5552 5561 5571 5580 5589 5601 5608 5616 5625 5633 5638 5642 5646 5663 5677 5680 5684 5691 5697 5703 5706 5709 5711 5713 5712 5711 5710 5709 5709 5709
5312 5318 5324 5330 5337 5348 5358 5368 5380 5393 5404 5411 5421 5435 5447 5455 5465 5471 5480 5489 5499 5512 5526 5539 5549 5559 5570 5579 5588 5595 5602 5610 5619 5628 5632 5634 5645 5665 5670 5675 5681 5687 5694 5699 5703 5705 5706 5707 5708 5707 5706 5705 5704 5705
5302 5307 5313 5319 5327 5337 5348 5359 5369 5378 5392 5406 5422 5433 5441 5449 5455 5461 5471 5486 5497 5511 5526 5537 5549 5558 5566 5573 5580 5590 5599 5606 5612 5622 5623 5628 5651 5660 5665 5670 5676 5681 5689 5695 5698 5700 5702 5703 5703 5703 5701 5700 5700 5699
5291 5294 5299 5307 5315 5326 5337 5348 5363 5376 5385 5397 5410 5420 5429 5433 5443 5455 5473 5489 5500 5515 5528 5538 5547 5554 5561 5569 5576 5585 5592 5600 5607 5614 5618 5635 5649 5655 5660 5664 5670 5677 5685 5690 5693 5696 5698 5699 5699 5698 5697 5696 5695 5695
5281 5281 5285 5292 5303 5314 5327 5341 5353 5366 5380 5388 5399 5410 5417 5428 5447 5469 5484 5497 5507 5516 5526 5534 5542 5550 5558 5566 5572 5579 5587 5595 5601 5606 5619 5637 5647 5651 5654 5660 5666 5674 5680 5684 5687 5691 5693 5694 5694 5693 5693 5692 5690 5689
5270 5267 5268 5274 5287 5301 5316 5332 5353 5367 5378 5388 5397 5403 5419 5444 5459 5471 5482 5492 5501 5511 5520 5527 5536 5546 5553 5557 5564 5574 5582 5587 5593 5609 5624 5636 5641 5646 5651 5657 5663 5669 5674 5678 5682 5686 5688 5689 5690 5689 5689 5688 5687 5685
5267 5267 5268 5273 5285 5303 5320 5338 5354 5368 5379 5387 5398 5410 5427 5443 5455 5468 5479 5487 5496 5503 5511 5518 5526 5534 5543 5549 5555 5566 5576 5584 5599 5614 5628 5631 5636 5641 5647 5652 5658 5664 5669 5673 5678 5681 5683 5684 5685 5685 5685 5684 5683 5681
5274 5276 5279 5289 5301 5315 5328 5345 5360 5371 5381 5388 5398 5413 5429 5440 5454 5468 5477 5484 5489 5494 5504 5513 5521 5530 5538 5541 5550 5561 5574 5588 5601 5617 5621 5626 5631 5635 5642 5648 5654 5660 5663 5668 5673 5676 5678 5680 5680 5680 5680 5680 5679 5678
5288 5291 5296 5303 5314 5327 5340 5353 5365 5373 5382 5393 5401 5414 5429 5444 5456 5463 5470 5474 5478 5489 5500 5511 5522 5527 5532 5542 5553 5567 5580 5593 5604 5611 5614 5620 5625 5631 5636 5643 5649 5654 5659 5663 5668 5670 5672 5674 5675 5675 5675 5675 5675 5674
5299 5305 5313 5321 5331 5340 5352 5365 5376 5383 5385 5395 5407 5419 5430 5443 5452 5459 5466 5469 5477 5487 5497 5507 5514 5519 5527 5542 5559 5572 5581 5590 5597 5603 5608 5615 5621 5627 5633 5639 5644 5649 5653 5658 5661 5664 5667 5669 5669 5670 5670 5670 5669 5669
5308 5316 5322 5331 5341 5351 5359 5364 5372 5381 5389 5401 5411 5421 5431 5442 5450 5458 5463 5468 5475 5483 5489 5498 5508 5518 5533 5548 5559 5568 5574 5581 5587 5595 5603 5611 5618 5624 5629 5634 5639 5643 5648 5652 5655 5658 5661 5663 5663 5664 5664 5664 5664 5663
5315 5321 5328 5336 5345 5357 5367 5372 5378 5385 5394 5406 5413 5424 5436 5443 5450 5455 5461 5468 5478 5487 5494 5503 5513 5524 5535 5545 5555 5561 5568 5576 5583 5592 5602 5608 5612 5618 5624 5629 5634 5638 5643 5647 5650 5653 5655 5657 5657 5658 5659 5658 5658 5658
5329 5334 5342 5350 5358 5367 5376 5383 5390 5394 5404 5412 5420 5430 5437 5444 5449 5454 5460 5469 5479 5488 5498 5508 5517 5525 5534 5540 5547 5555 5564 5571 5577 5586 5592 5598 5605 5612 5618 5623 5628 5633 5637 5640 5643 5646 5648 5649 5651 5652 5652 5651 5652 5651
5337 5346 5355 5360 5365 5373 5381 5386 5395 5401 5408 5416 5425 5433 5439 5446 5453 5459 5466 5473 5481 5491 5500 5508 5517 5524 5529 5535 5543 5551 5558 5566 5572 5580 5587 5593 5599 5606 5612 5618 5622 5626 5630 5633 5637 5639 5641 5643 5644 5644 5643 5644 5644 5643
5345 5352 5361 5365 5369 5375 5384 5393 5398 5404 5411 5418 5424 5434 5442 5450 5456 5462 5469 5477 5485 5492 5500 5508 5516 5521 5528 5534 5542 5550 5556 5563 5572 5579 5584 5591 5597 5602 5606 5611 5616 5620 5623 5626 5629 5631 5633 5635 5635 5635 5635 5635 5634 5634
5353 5358 5366 5369 5372 5378 5383 5397 5404 5410 5417 5423 5431 5438 5445 5452 5457 5464 5470 5478 5486 5493 5502 5509 5515 5520 5526 5533 5541 5548 5555 5561 5569 5576 5582 5587 5593 5598 5602 5605 5608 5611 5615 5618 5620 5622 5624 5626 5627 5627 5627 5626 5625 5624
5358 5366 5371 5374 5381 5387 5393 5400 5408 5415 5420 5427 5433 5441 5447 5455 5461 5467 5474 5481 5489 5495 5499 5506 5512 5518 5525 5531 5539 5545 5552 5559 5565 5571 5576 5581 5586 5591 5595 5599 5601 5605 5608 5610 5611 5612 5615 5617 5618 5618 5617 5616 5615 5613
5361 5368 5375 5380 5387 5391 5398 5404 5411 5419 5423 5429 5436 5444 5451 5457 5463 5470 5476 5481 5487 5493 5499 5505 5512 5518 5524 5531 5538 5544 5549 5555 5560 5566 5571 5576 5580 5584 5588 5591 5594 5596 5598 5600 5602 5604 5606 5606 5607 5607 5607 5606 5604 5603
5367 5371 5376 5384 5390 5395 5402 5407 5413 5418 5425 5432 5438 5443 5450 5457 5463 5469 5475 5481 5487 5493 5499 5506 5512 5517 5522 5528 5533 5538 5544 5549 5554 5559 5563 5568 5573 5576 5579 5581 5584 5587 5589 5592 5593 5594 5594 5595 5596 5596 5595 5594 5593 5592
5371 5376 5383 5388 5392 5397 5402 5408 5415 5422 5428 5434 5441 5447 5452 5458 5463 5468 5474 5480 5487 5493 5498 5504 5509 5514 5520 5524 5528 5533 5538 5543 5547 5552 5557 5561 5565 5568 5571 5574 5576 5578 5579 5580 5581 5581 5582 5584 5585 5584 5583 5582 5580 5579
5373 5378 5383 5390 5396 5400 5405 5411 5417 5424 5432 5437 5443 5448 5454 5459 5463 5468 5473 5479 5485 5491 5496 5501 5506 5511 5515 5519 5523 5527 5532 5536 5541 5546 5550 5553 5556 5559 5561 5563 5564 5565 5567 5568 5569 5570 5571 5572 5571 5571 5570 5568 5566 5565
5374 5380 5387 5392 5395 5400 5405 5410 5416 5422 5429 5436 5440 5446 5452 5457 5462 5467 5472 5477 5482 5487 5492 5498 5501 5506 5510 5514 5518 5522 5526 5530 5533 5536 5540 5543 5546 5549 5551 5552 5554 5555 5556 5556 5557 5558 5558 5558 5557 5556 5554 5553 5552 5550
5377 5380 5385 5389 5396 5401 5404 5408 5413 5420 5427 5432 5438 5443 5449 5454 5460 5465 5470 5474 5478 5483 5487 5491 5495 5500 5503 5506 5511 5514 5517 5521 5524 5528 5531 5534 5537 5538 5540 5542 5542 5543 5543 5544 5544 5544 5543 5543 5542 5540 5539 5538 5536 5535
5375 5378 5383 5386 5392 5398 5404 5408 5412 5418 5423 5429 5435 5440 5444 5450 5454 5459 5463 5468 5472 5476 5480 5484 5487 5489 5493 5497 5501 5505 5508 5511 5514 5517 5519 5521 5523 5524 5525 5526 5526 5527 5528 5529 5529 5528 5528 5528 5527 5526 5525 5524 5522 5520